Flag for India Weather past 2 weeks in Kolkata, West Bengal, India

Now
90 °F

Broken clouds.


Feels Like: 111 °F
Forecast: 76 / 81 °F
Wind: 13 mph from North

Location: Calcutta / Dum Dum

Current Time: Jul 30, 2015 at 12:28:19 PM

Latest Report: Jul 30, 2015 at 11:50 AM


Visibility: 2 mi

Pressure: 29.42 "Hg

Humidity: 79%

Dew point: 82 °F

Location of KolkataLocation

Historic Weather in Kolkata — Graph

°F

Kolkata temperature yesterday

Maximum temperature yesterday: 82 °F (at 6:20 AM)
Minimum temperature yesterday: 81 °F (at 12:20 AM)
Average temperature yesterday: 81 °F

Past Weeks' High & Low Weather Summary

 TemperatureHumidityPressure
High93 °F (Jul 15, 12:20 PM)100% (Jul 15, 6:20 PM)29.68 "Hg (Jul 15, 6:20 PM)
Low77 °F (Jul 20, 1:20 AM)66% (Jul 26, 1:50 PM)29.36 "Hg (Jul 15, 3:20 PM)
Average82 °F90%29.50 "Hg
* Reported Jul 15 10:50 AM — Jul 30 10:50 AM, Kolkata, Weather by CustomWeather, © 2015

Note: Actual official high and low records may vary slightly from our data, if they occured in-between our weather recording intervals... More about our weather records

Advertising

Kolkata weather history for previous 24 hours

 ConditionsComfort  
Time TempWeatherWind HumidityBarometerVisibility
10:50 AM
Thu, Jul 30
90 °FBroken clouds.15 mph75%29.42 "Hg2 mi
10:20 AM90 °FBroken clouds.13 mph75%29.42 "Hg2 mi
9:50 AM88 °FBroken clouds.15 mph79%29.42 "Hg2 mi
9:20 AM88 °FBroken clouds.13 mph79%29.42 "Hg2 mi
8:50 AM86 °FBroken clouds.12 mph84%29.45 "Hg2 mi
8:20 AM84 °FBroken clouds.13 mph89%29.42 "Hg2 mi
7:50 AM84 °FBroken clouds.12 mph89%29.42 "Hg2 mi
7:20 AM82 °FBroken clouds.12 mph89%29.45 "Hg2 mi
6:50 AM82 °FBroken clouds.12 mph89%29.42 "Hg2 mi
6:20 AM82 °FBroken clouds.12 mph89%29.42 "Hg2 mi
5:50 AM81 °FBroken clouds.9 mph94%29.42 "Hg2 mi
5:20 AM81 °FLight rain. Partly cloudy.7 mph94%29.39 "Hg2 mi
4:50 AM81 °FLight rain. Partly cloudy.7 mph94%29.39 "Hg2 mi
4:20 AM81 °FLight rain. Partly cloudy.7 mph94%29.39 "Hg2 mi
3:50 AM81 °FLight rain. Partly cloudy.9 mph94%29.39 "Hg2 mi
3:20 AM81 °FPartly cloudy.9 mph94%29.39 "Hg2 mi
2:50 AM81 °FPartly cloudy.9 mph94%29.42 "Hg2 mi
2:20 AM81 °FPartly cloudy.9 mph94%29.42 "Hg2 mi
1:50 AM81 °FPartly cloudy.9 mph94%29.42 "Hg2 mi
1:20 AM81 °FPartly cloudy.6 mph94%29.45 "Hg2 mi
12:50 AM81 °FPartly cloudy.6 mph94%29.45 "Hg2 mi
12:20 AM81 °FPartly cloudy.7 mph94%29.42 "Hg2 mi
11:50 PM
Wed, Jul 29
81 °FPartly cloudy.7 mph94%29.45 "Hg2 mi
11:20 PM81 °FPartly cloudy.7 mph89%29.45 "Hg2 mi
10:50 PM81 °FPartly cloudy.7 mph89%29.47 "Hg2 mi
10:20 PM81 °FPartly cloudy.6 mph89%29.45 "Hg2 mi
9:50 PM81 °FPartly cloudy.7 mph89%29.45 "Hg2 mi
9:20 PM81 °FPartly cloudy.8 mph89%29.45 "Hg2 mi
8:50 PM81 °FPartly cloudy.9 mph89%29.45 "Hg2 mi
8:20 PM81 °FPartly cloudy.9 mph89%29.42 "Hg2 mi
7:50 PM81 °FPartly cloudy.9 mph89%29.42 "Hg2 mi
7:20 PM81 °FPartly cloudy.8 mph89%29.42 "Hg2 mi
6:50 PM81 °FPartly cloudy.8 mph89%29.42 "Hg2 mi
6:20 PM81 °FBroken clouds.7 mph89%29.39 "Hg2 mi
5:50 PM81 °FBroken clouds.12 mph94%29.39 "Hg2 mi
5:20 PM81 °FBroken clouds.12 mph94%29.39 "Hg2 mi
4:50 PM81 °FBroken clouds.12 mph94%29.36 "Hg2 mi
4:20 PM81 °FLight rain. Broken clouds.9 mph94%29.39 "Hg2 mi
3:50 PM81 °FBroken clouds.8 mph94%29.39 "Hg2 mi
3:20 PM81 °FBroken clouds.8 mph94%29.39 "Hg2 mi
2:50 PM81 °FBroken clouds.9 mph94%29.39 "Hg2 mi
2:20 PM81 °FBroken clouds.12 mph94%29.39 "Hg2 mi
1:20 PM81 °FThunderstorms. Broken clouds.14 mph94%29.42 "Hg2 mi
12:50 PM81 °FThunderstorms. Broken clouds.12 mph94%29.42 "Hg2 mi
12:20 PM81 °FThunderstorms. More clouds than sun.9 mph94%29.45 "Hg2 mi
Weather by CustomWeather, © 2015

See weather overviewHow to use our weather pages